St. James, MN

5:45 AM CDT on July 19, 2019 (GMT -0500)
Saint James Municipal

Weather History for KJYG - May, 2019

Change the Weather History Date:

Wednesday, May 29, 2019

  Actual Average Record
Temperature  
Mean Temperature 64 °F -  
Max Temperature 73 °F 75 °F 91 °F (1988)
Min Temperature 55 °F 53 °F 38 °F (1965)
Degree Days  
Heating Degree Days 1    
Growing Degree Days 14 (Base 50)    
Moisture  
Dew Point 57 °F    
Average Humidity 83    
Maximum Humidity 100    
Minimum Humidity 61    
Precipitation  
Precipitation 0.05 in - - ()
Sea Level Pressure  
Sea Level Pressure 29.75 in    
Wind  
Wind Speed 5 mph (NNE)    
Max Wind Speed 15 mph    
Max Gust Speed 18 mph    
Visibility 10 miles    
Events Rain , Thunderstorm    
Averages and records for this station are not official NWS values.
T = Trace of Precipitation, MM = Missing Value Source: NWS Daily Summary

Daily Weather History Graph

Daily Weather History Graph

Search for Another Location

Airport or City:

Astronomy

May. 29, 2019 Rise Set
Actual Time 5:40 AM CDT 8:51 PM CDT
Civil Twilight 5:05 AM CDT 9:26 PM CDT
Nautical Twilight 4:20 AM CDT 10:11 PM CDT
Astronomical Twilight 3:25 AM CDT 11:07 PM CDT
Moon 3:33 AM CDT (5/29) 3:48 PM CDT (5/29)
Length of Visible Light 16h 21m
Length of Day
15h 11m
Waning Crescent, 23% of the Moon is Illuminated
May 29
Waning Crescent
Jun 3
New
Jun 10
First Quarter
Jun 17
Full
Jun 25
Last Quarter

Hourly Weather History & Observations

Time (CDT) Temp. Dew Point Humidity Pressure Visibility Wind Dir Wind Speed Gust Speed Precip Events Conditions
12:15 AM 57.2 °F 55.4 °F 94% 29.78 in 10.0 mi East 4.6 mph - N/A   Clear
12:35 AM 57.2 °F 55.4 °F 94% 29.77 in 10.0 mi ENE 4.6 mph - N/A   Clear
12:55 AM 57.2 °F 55.4 °F 94% 29.77 in 10.0 mi NNE 4.6 mph - N/A   Clear
1:15 AM 57.2 °F 55.4 °F 94% 29.76 in 10.0 mi NNE 4.6 mph - N/A   Clear
1:16 AM 57.2 °F 55.4 °F 94% 29.76 in 10.0 mi NNE 3.5 mph - N/A   Clear
1:35 AM 57.2 °F 55.4 °F 94% 29.76 in 10.0 mi Calm Calm - N/A   Clear
1:55 AM 55.4 °F 55.4 °F 100% 29.75 in 10.0 mi Calm Calm - N/A   Clear
2:15 AM 55.4 °F 53.6 °F 94% 29.75 in 10.0 mi North 3.5 mph - N/A   Clear
2:16 AM 55.4 °F 55.4 °F 100% 29.75 in 10.0 mi North 4.6 mph - N/A   Clear
2:35 AM 55.4 °F 55.4 °F 100% 29.74 in 10.0 mi NNE 3.5 mph - N/A   Clear
2:55 AM 55.4 °F 55.4 °F 100% 29.73 in 10.0 mi NNE 5.8 mph - N/A   Clear
3:15 AM 55.4 °F 55.4 °F 100% 29.74 in 10.0 mi North 3.5 mph - N/A   Scattered Clouds
3:16 AM 55.4 °F 55.4 °F 100% 29.74 in 10.0 mi North 3.5 mph - N/A   Scattered Clouds
3:35 AM 55.4 °F 55.4 °F 100% 29.74 in 10.0 mi North 3.5 mph - N/A   Scattered Clouds
3:55 AM 57.2 °F 55.4 °F 94% 29.73 in 10.0 mi NNE 5.8 mph - N/A   Overcast
4:15 AM 57.2 °F 55.4 °F 94% 29.74 in 10.0 mi North 3.5 mph - N/A Rain Light Rain
4:35 AM 57.2 °F 55.4 °F 94% 29.75 in 10.0 mi NNW 3.5 mph - N/A   Overcast
4:55 AM 57.2 °F 55.4 °F 94% 29.77 in 10.0 mi West 4.6 mph - N/A   Overcast
5:15 AM 57.2 °F 55.4 °F 94% 29.77 in 10.0 mi NNW 3.5 mph - N/A   Overcast
5:35 AM 55.4 °F 55.4 °F 100% 29.77 in 10.0 mi North 5.8 mph - N/A   Overcast
5:55 AM 55.4 °F 55.4 °F 100% 29.77 in 7.0 mi NNW 4.6 mph - 0.01 in Rain Rain
6:15 AM 55.4 °F 55.4 °F 100% 29.77 in 10.0 mi North 4.6 mph - 0.01 in Rain Light Rain
6:35 AM 57.2 °F 55.4 °F 94% 29.77 in 10.0 mi NNE 5.8 mph - 0.01 in Rain Light Rain
6:55 AM 57.2 °F 55.4 °F 94% 29.77 in 7.0 mi NNE 6.9 mph - 0.01 in Rain Rain
7:15 AM 57.2 °F 55.4 °F 94% 29.78 in 10.0 mi North 5.8 mph - N/A   Light Drizzle
7:35 AM 57.2 °F 55.4 °F 94% 29.77 in 10.0 mi NNE 5.8 mph - N/A   Light Drizzle
7:55 AM 57.2 °F 55.4 °F 94% 29.78 in 10.0 mi North 5.8 mph - 0.01 in Rain Rain
7:56 AM 57.2 °F 55.4 °F 94% 29.78 in 10.0 mi North 6.9 mph - N/A Rain Light Rain
8:15 AM 57.2 °F 55.4 °F 94% 29.78 in 7.0 mi NNE 6.9 mph - 0.01 in   Drizzle
8:35 AM 57.2 °F 55.4 °F 94% 29.79 in 7.0 mi NNE 8.1 mph - 0.01 in Rain Rain
8:55 AM 57.2 °F 55.4 °F 94% 29.80 in 10.0 mi Calm Calm - 0.01 in Rain Light Rain
9:15 AM 57.2 °F 55.4 °F 94% 29.79 in 10.0 mi NE 6.9 mph - 0.01 in   Light Drizzle
9:35 AM 57.2 °F 55.4 °F 94% 29.80 in 10.0 mi ENE 8.1 mph - 0.01 in   Light Drizzle
9:55 AM 59.0 °F 55.4 °F 88% 29.80 in 10.0 mi NNE 4.6 mph - 0.01 in Rain Light Rain
10:15 AM 59.0 °F 57.2 °F 94% 29.80 in 10.0 mi NE 3.5 mph - N/A   Mostly Cloudy
10:35 AM 60.8 °F 57.2 °F 88% 29.79 in 10.0 mi NE 8.1 mph - N/A   Scattered Clouds
10:55 AM 62.6 °F 57.2 °F 82% 29.78 in 10.0 mi NE 10.4 mph - N/A   Scattered Clouds
11:15 AM 64.4 °F 57.2 °F 77% 29.79 in 10.0 mi ENE 9.2 mph - N/A   Scattered Clouds
11:35 AM 64.4 °F 57.2 °F 77% 29.80 in 10.0 mi NNE 4.6 mph - N/A   Scattered Clouds
11:55 AM 64.4 °F 57.2 °F 77% 29.79 in 10.0 mi NNW 4.6 mph - N/A   Scattered Clouds
12:15 PM 64.4 °F 57.2 °F 77% 29.77 in 10.0 mi NE 8.1 mph - N/A   Scattered Clouds
12:35 PM 66.2 °F 57.2 °F 73% 29.77 in 10.0 mi NE 6.9 mph - N/A   Scattered Clouds
12:36 PM 66.2 °F 57.2 °F 73% 29.77 in 10.0 mi NE 6.9 mph - N/A   Scattered Clouds
12:55 PM 66.2 °F 59.0 °F 78% 29.77 in 10.0 mi NE 8.1 mph - N/A   Scattered Clouds
1:15 PM 68.0 °F 59.0 °F 73% 29.76 in 10.0 mi ENE 11.5 mph - N/A   Scattered Clouds
1:35 PM 68.0 °F 57.2 °F 68% 29.76 in 10.0 mi NE 12.7 mph - N/A   Scattered Clouds
1:36 PM 68.0 °F 57.2 °F 68% 29.75 in 10.0 mi ENE 13.8 mph - N/A   Scattered Clouds
1:55 PM 69.8 °F 59.0 °F 68% 29.75 in 10.0 mi ENE 15.0 mph 18.4 mph N/A   Scattered Clouds
2:15 PM 69.8 °F 59.0 °F 68% 29.75 in 10.0 mi ENE 13.8 mph 17.3 mph N/A   Scattered Clouds
2:35 PM 69.8 °F 59.0 °F 68% 29.74 in 10.0 mi ENE 12.7 mph - N/A   Scattered Clouds
2:36 PM 69.8 °F 59.0 °F 68% 29.74 in 10.0 mi ENE 11.5 mph - N/A   Scattered Clouds
2:55 PM 71.6 °F 59.0 °F 64% 29.74 in 10.0 mi East 8.1 mph - N/A   Scattered Clouds
3:15 PM 69.8 °F 57.2 °F 64% 29.74 in 10.0 mi NE 4.6 mph - N/A   Mostly Cloudy
3:35 PM 71.6 °F 59.0 °F 64% 29.74 in 10.0 mi East 6.9 mph - N/A   Mostly Cloudy
3:55 PM 73.4 °F 59.0 °F 61% 29.75 in 10.0 mi East 4.6 mph - N/A   Mostly Cloudy
4:15 PM 71.6 °F 59.0 °F 64% 29.75 in 10.0 mi ENE 4.6 mph - N/A   Mostly Cloudy
4:35 PM 71.6 °F 59.0 °F 64% 29.74 in 10.0 mi ENE 8.1 mph - N/A   Mostly Cloudy
4:55 PM 71.6 °F 59.0 °F 64% 29.73 in 10.0 mi NE 6.9 mph - N/A   Mostly Cloudy
5:15 PM 71.6 °F 59.0 °F 64% 29.73 in 10.0 mi North 8.1 mph - N/A   Overcast
5:35 PM 71.6 °F 59.0 °F 64% 29.73 in 10.0 mi North 9.2 mph - N/A Thunderstorm Overcast
5:55 PM 71.6 °F 60.8 °F 69% 29.73 in 10.0 mi North 9.2 mph - N/A   Mostly Cloudy
6:15 PM 71.6 °F 59.0 °F 64% 29.72 in 10.0 mi North 11.5 mph - N/A   Overcast
6:35 PM 69.8 °F 57.2 °F 64% 29.73 in 10.0 mi NNE 9.2 mph - N/A Rain Light Rain
6:55 PM 69.8 °F 57.2 °F 64% 29.73 in 10.0 mi North 6.9 mph - N/A   Overcast
6:56 PM 69.8 °F 57.2 °F 64% 29.73 in 10.0 mi North 6.9 mph - N/A   Overcast
7:15 PM 69.8 °F 59.0 °F 68% 29.73 in 10.0 mi NNE 3.5 mph - N/A   Overcast
7:35 PM 68.0 °F 59.0 °F 73% 29.72 in 10.0 mi North 6.9 mph - N/A   Overcast
8:15 PM 68.0 °F 60.8 °F 78% 29.72 in 10.0 mi North 4.6 mph - N/A   Overcast
8:35 PM 68.0 °F 60.8 °F 78% 29.72 in 10.0 mi NNE 4.6 mph - N/A Thunderstorm Overcast
8:55 PM 66.2 °F 60.8 °F 83% 29.73 in 10.0 mi Calm Calm - N/A   Overcast
9:15 PM 66.2 °F 60.8 °F 83% 29.73 in 10.0 mi Calm Calm - N/A   Overcast
9:35 PM 66.2 °F 60.8 °F 83% 29.73 in 10.0 mi NNW 4.6 mph - N/A   Overcast
9:55 PM 66.2 °F 60.8 °F 83% 29.74 in 10.0 mi Calm Calm - N/A   Overcast
10:15 PM 64.4 °F 60.8 °F 88% 29.74 in 10.0 mi North 5.8 mph - N/A   Mostly Cloudy
10:35 PM 64.4 °F 57.2 °F 77% 29.74 in 10.0 mi North 6.9 mph - N/A   Scattered Clouds
10:55 PM 62.6 °F 57.2 °F 82% 29.74 in 10.0 mi North 5.8 mph - N/A   Clear
11:15 PM 62.6 °F 55.4 °F 77% 29.74 in 10.0 mi North 6.9 mph - N/A   Clear
11:35 PM 62.6 °F 55.4 °F 77% 29.74 in 10.0 mi NNE 4.6 mph - N/A Thunderstorm Mostly Cloudy
11:55 PM 62.6 °F 55.4 °F 77% 29.73 in 10.0 mi NNE 3.5 mph - N/A   Mostly Cloudy